Regional Weather Roundup
Issued by NWS

Home | Current Version | Previous Version | Text Only | Print | Product List | Glossary Off
Versions: 1 2 3 4 5 6 7 8 9 10 11 12 13 14 15 16 17 18 19 20 21 22 23 24 25 26 27 28 29 30 31 32 33 34 35 36 37 38 39 40 41 42 43 44 45 46 47 48 49 50

429
ASUS43 KOAX 270310
RWRNE

WEATHER ROUNDUP FOR NEBRASKA
NATIONAL WEATHER SERVICE OMAHA NE
1000 PM CDT MON SEP 26 2016

NOTES: SATELLITE DATA IS BEING USED TO AUGMENT CLOUD COVER ABOVE
       12000 FEET.
       "FAIR" INDICATES FEW OR NO CLOUDS BELOW 12,000 FEET WITH NO
       SIGNIFICANT WEATHER AND/OR OBSTRUCTIONS TO VISIBILITY.

  * THESE STATIONS DO NOT REPORT WEATHER SUCH AS RAIN...SNOW OR FOG.

NEZ001>004-019>022-054>056-270400-
NEBRASKA PANHANDLE

CITY           SKY/WX    TMP DP  RH WIND       PRES   REMARKS
SCOTTSBLUFF    CLEAR     55  44  66 N5        30.26S
ALLIANCE       CLEAR     47  41  80 W9        30.24S
CHADRON        CLOUDY    55  42  61 CALM      30.23S
KIMBALL        CLEAR     53  42  66 CALM      30.32R
SIDNEY         CLEAR     52  39  61 W3        30.29R
$$

NEZ057>060-069>072-079>082-270400-
SOUTHWEST NEBRASKA

CITY           SKY/WX    TMP DP  RH WIND       PRES   REMARKS
NORTH PLATTE   CLEAR     52  42  69 CALM      30.19R
IMPERIAL       CLEAR     57  41  55 W3        30.22S
LEXINGTON      CLEAR     53  45  73 CALM      30.17S HAZE
MCCOOK         CLEAR     60  45  57 W5        30.18S
OGALLALA       CLEAR     56  43  61 CALM      30.22S
$$

NEZ005>010-023>029-035>040-094-270400-
NORTH CENTRAL NEBRASKA

CITY           SKY/WX    TMP DP  RH WIND       PRES   REMARKS
VALENTINE      CLEAR     56  37  49 NW8       30.17R
AINSWORTH      CLEAR     55  42  63 W6        30.15S
BROKEN BOW     CLEAR     48  41  76 CALM      30.16R
O`NEILL        CLEAR     56  42  58 W5        30.12S
ORD            CLEAR     51  42  71 CALM      30.13R
THEDFORD       CLEAR     53  41  63 CALM      30.20R
$$

NEZ041-046>049-061>064-073>077-083>087-270400-
SOUTH CENTRAL NEBRASKA

CITY           SKY/WX    TMP DP  RH WIND       PRES   REMARKS
GRAND ISLAND   CLEAR     56  44  64 CALM      30.14S
AURORA         CLEAR     54  47  77 CALM      30.13S
HASTINGS       CLEAR     57  45  64 CALM      30.15S
HEBRON         CLEAR     55  45  69 CALM      30.13S
HOLDREGE       CLEAR     54  44  70 CALM      30.16S
KEARNEY *      CLEAR     61  39  44 N3        30.15S
YORK           CLEAR     55  46  71 NW5       30.13S
$$

NEZ011>018-030>034-042>045-270400-
NORTHEAST NEBRASKA

CITY           SKY/WX    TMP DP  RH WIND       PRES   REMARKS
NORFOLK        CLEAR     51  43  74 SW3       30.10S
ALBION         CLEAR     51  44  76 CALM      30.12F
BLAIR          CLEAR     61  42  49 NW5       30.08S
FREMONT        CLEAR     59  44  57 CALM      30.10S
TEKAMAH        CLEAR     51  44  77 SW6       30.07S
WAYNE          CLEAR     50  45  81 CALM      30.09F
$$

NEZ050>053-065>068-078-088>093-270400-
SOUTHEAST NEBRASKA

CITY           SKY/WX    TMP DP  RH WIND       PRES   REMARKS
LINCOLN        CLEAR     59  46  62 W3        30.12R
OMAHA EPPLEY   CLEAR     60  48  64 CALM      30.08S
BEATRICE       CLEAR     55  47  75 NW7       30.12R
FALLS CITY     CLEAR     60  47  61 SW7       30.08S
NEBRASKA CITY  CLEAR     59  37  43 W8        30.09S
PLATTSMOUTH    CLEAR     58  41  52 W6        30.09S
$$

NEZ044-045-051>053-067-270400-
OMAHA AREA

CITY           SKY/WX    TMP DP  RH WIND       PRES   REMARKS
OMAHA EPPLEY   CLEAR     60  48  64 CALM      30.08S
BLAIR          CLEAR     61  42  49 NW5       30.08S
FREMONT        CLEAR     59  44  57 CALM      30.10S
MILLARD        CLEAR     59  49  69 CALM      30.09S
OFFUTT AFB     CLEAR     56  48  73 NW6       30.07S
PLATTSMOUTH    CLEAR     58  41  52 W6        30.09S
WAHOO          FAIR      53  46  77 NW3       30.10R
$$




USA.gov is the U.S. government's official web portal to all federal, state and local government web resources and services.